Content
SEND FEEDBACK

Daily
Averages
Monthly
Summary
Canada

VANCOUVER - UNIVERSITY, BRITISH COLUMBIA


Home > North America > Canada > British Columbia
Elevation: 249 feet     Latitude: 49 15N     Longitude: 123 15W

WEATHER
 
SELECT A DAY
Number of Records: 198,947;   Date Range: 1/1/95 - 11/27/14
 
SHARE

PRINT THIS DATA

[ ← Previous Day ]
WEATHER ALMANAC - AUGUST 28, 2013
[ Next Day → ]
[ °C ]   °F
Weather ElementAverageHighLow
Temperature64.3 °F71.6 °F (5:00 pm)60.8 °F (1:57 am)
Dewpoint61 °F64.4 °F (9:00 pm)59 °F (12:41 am)
Humidity89.4 %100 % (2:00 am)73 % (3:00 pm)
Barometer29.87 in29.91 in (11:00 am)29.83 in (1:57 am)
Wind Speed4.4 mph9.2 mph (2:34 am)
Weather ElementAverage
Visibility14.7 mi
Wind DirectionS (176.1 °)

Weather ElementTotal
Precipitation---
Cooling Degree Days1.2 (Base 65)
Growing Degree Days16.2 (Base 50)
Averaged from 38 records on August 28, 2013
WEATHER CONDITIONS BREAKOUT
WIND DIRECTION BREAKOUT
WEATHER BY HOUR - AUGUST 28, 2013
[ °C ]   °F
Local TimeTemperatureDewpointHumidityBarometerVisibilityWind DirectionWind SpeedGust SpeedPrecipitationEventsConditions
12:41 AM62.6 °F59.0 °F88 %29.84 in15.0 miSSE (150°)2.3 mphLight Drizzle
1:00 AM62.6 °F59.0 °F88 %29.84 in15.0 miESE (110°)5.8 mphLight Drizzle
1:57 AM60.8 °F59.0 °F94 %29.83 in15.0 miSE (130°)6.9 mphLight Drizzle
2:00 AM60.8 °F60.8 °F100 %29.83 in15.0 miSE (130°)5.8 mphLight Drizzle
2:34 AM60.8 °F60.8 °F100 %29.83 in15.0 miESE (120°)9.2 mphRainLight Rain
3:00 AM60.8 °F60.8 °F100 %29.83 in12.0 miSSE (150°)5.8 mphRainLight Rain
3:09 AM60.8 °F60.8 °F100 %29.83 in12.0 miSSE (160°)5.8 mphRainLight Rain
4:00 AM60.8 °F59.0 °F94 %29.84 in12.0 miSSE (160°)5.8 mphRainLight Rain
4:17 AM60.8 °F59.0 °F94 %29.84 in12.0 miSSE (160°)4.6 mphOvercast
4:51 AM60.8 °F59.0 °F94 %29.84 in12.0 miSouth (170°)3.5 mphRainLight Rain Showers
5:00 AM61.0 °F60.0 °F95 %29.84 in10.0 miSouth (170°)2.3 mphRainLight Rain
5:00 AM60.8 °F59.0 °F94 %29.84 in10.0 miSouth (170°)2.3 mphRainLight Rain Showers
6:00 AM60.8 °F59.0 °F94 %29.85 in8.0 miWest (260°)5.8 mphRainLight Rain
6:38 AM60.8 °F59.0 °F94 %29.86 in8.0 miCalmOvercast
6:56 AM60.8 °F60.8 °F100 %29.86 in8.0 miCalmOvercast
7:00 AM60.8 °F60.8 °F100 %29.86 in8.0 miCalmOvercast
8:00 AM62.6 °F60.8 °F94 %29.88 in8.0 miESE (110°)2.3 mphOvercast
9:00 AM62.6 °F60.8 °F94 %29.88 in10.0 miEast (90°)5.8 mphOvercast
9:17 AM62.6 °F60.8 °F94 %29.88 in10.0 miEast (100°)6.9 mphOvercast
9:55 AM64.4 °F60.8 °F88 %29.89 in12.0 miSSE (160°)4.6 mphOvercast
10:00 AM64.4 °F60.8 °F88 %29.89 in12.0 miSSE (150°)4.6 mphOvercast
10:13 AM64.4 °F60.8 °F88 %29.89 in12.0 miSSE (150°)4.6 mphOvercast
11:00 AM66.0 °F62.0 °F81 %29.91 in12.0 miSE (140°)4.6 mphPartly Cloudy
11:00 AM66.2 °F60.8 °F83 %29.90 in12.0 miSE (140°)5.8 mphOvercast
12:00 PM66.2 °F60.8 °F83 %29.91 in15.0 miSW (230°)5.8 mphOvercast
1:00 PM66.2 °F62.6 °F88 %29.91 in15.0 miSW (220°)4.6 mphMostly Cloudy
2:00 PM68.0 °F60.8 °F78 %29.91 in15.0 miWest (260°)5.8 mphOvercast
3:00 PM69.8 °F60.8 °F73 %29.91 in20.0 miWSW (250°)4.6 mphOvercast
4:00 PM69.8 °F62.6 °F78 %29.91 in20.0 miWNW (290°)6.9 mphOvercast
5:00 PM71.6 °F62.6 °F73 %29.89 in30.0 miNW (310°)4.6 mphOvercast
6:00 PM69.8 °F62.6 °F78 %29.89 in30.0 miWest (280°)8.1 mphOvercast
7:00 PM69.8 °F62.6 °F78 %29.88 in20.0 miNW (320°)5.8 mphMostly Cloudy
8:00 PM68.0 °F62.6 °F83 %29.88 in20.0 miNNW (330°)4.6 mphOvercast
9:00 PM68.0 °F64.4 °F88 %29.88 in20.0 miVariable2.3 mphOvercast
10:00 PM66.2 °F62.6 °F88 %29.88 in20.0 miWNW (290°)2.3 mphOvercast
10:21 PM66.2 °F64.4 °F94 %29.88 in20.0 miWSW (240°)2.3 mphRainLight Rain
11:00 PM66.0 °F63.0 °F88 %29.89 in19.0 miWNW (300°)2.3 mphRainLight Rain
11:00 PM66.2 °F62.6 °F88 %29.89 in20.0 miWNW (290°)2.3 mphRainLight Rain
Hourly data recorded from CYVR, located miles away from Vancouver - University, British Columbia







STORIES FROM OUR PARTNERS